Station 46027 (LLNR 562) - ST GEORGES - 8 NM NW of Crescent City, CA Image indicating link to RSS feed of recent meteorological observations for station 46027


Conditions at 46027 as of
(6:10 pm PDT on 07/17/2024)
0110 GMT on 07/18/2024:
     

Click on the graph icon in the table below to see a time series plot of the last five days of that observation.

5-day plot - Wind Direction Wind Direction (WDIR):SSW ( 210 deg true )
5-day plot - Wind Speed Wind Speed (WSPD): 1.9 kts
5-day plot - Wind Gust Wind Gust (GST): 1.9 kts
5-day plot - Wave Height Wave Height (WVHT): 3.3 ft
5-day plot - Average Wave Period Average Period (APD): 6.9 sec
5-day plot - Mean Wave Direction Mean Wave Direction (MWD): SW ( 224 deg true )
5-day plot - Atmospheric Pressure Atmospheric Pressure (PRES):30.10 in
5-day plot - Air Temperature Air Temperature (ATMP): 56.3 °F
5-day plot - Water Temperature Water Temperature (WTMP): 54.3 °F
5-day plot - Dew Point Dew Point (DEWP): 54.1 °F
5-day plot - Wind Speed at 10 Meters Wind Speed at 10 meters (WSPD10M): 1.9 kts
5-day plot - Wind Speed at 20 Meters Wind Speed at 20 meters (WSPD20M): 1.9 kts
5-day plot -  Wind Speed, Wind Gust and Atmospheric Pressure Combined plot of Wind Speed, Gust, and Air Pressure
Supplemental Measurements
Lowest 1-minute Pressure
Time (PDT)Pressure
6:05 pm30.10 in
Highest 1-minute Wind Speed
Time (PDT)5-day plot - 1-Minute Wind Speed WSPD 5-day plot - 1-Minute Wind Direction WDIR
6:04 pm 1.9 ktsSSW ( 200 deg true )
Previous observations
TIME
(PDT)
5-day plot - Wind Direction
WDIR
 
5-day plot - Wind Speed
WSPD
kts
5-day plot - Wind Gust
GST
kts
5-day plot - Wave Height
WVHT
ft
5-day plot - Dominant Wave Period
DPD
sec
5-day plot - Average Wave Period
APD
sec
5-day plot - Mean Wave Direction
MWD
 
5-day plot - Atmospheric Pressure
PRES
in
5-day plot - Pressure Tendency
PTDY
in
5-day plot - Air Temperature
ATMP
°F
5-day plot - Water Temperature
WTMP
°F
5-day plot - Dew Point
DEWP
°F
5-day plot - Salinity
SAL
psu
5-day plot - Visibility
VIS
nmi
5-day plot - Tide (above MLLW)
TIDE
ft
2024-07-17 06:00 pmSSW 1.9 1.9----30.10-0.03 56.3 54.5 54.1---
2024-07-17 05:50 pm- 0.0 1.9 3.0 177.1SSW30.10- 56.1 54.5 54.1---
2024-07-17 05:40 pmSSW 1.9 1.9----30.10- 55.8 53.2 54.0---
2024-07-17 05:30 pm S 1.9 3.9----30.11- 55.4 53.6 53.8---
2024-07-17 05:20 pm S 1.9 3.9 3.3 177.5 SW30.11- 55.2 54.1 53.8---
2024-07-17 05:10 pm S 3.9 3.9----30.11- 55.0 54.1 53.4---
2024-07-17 05:00 pm S 3.9 3.9----30.11-0.01 55.0 54.0 53.4---
2024-07-17 04:50 pm S 3.9 3.9 3.3 176.8SSW30.12- 55.0 52.3 53.4---
2024-07-17 04:40 pmSSE 3.9 5.8----30.11- 55.0 53.8 53.4---
2024-07-17 04:30 pmSSE 3.9 5.8----30.12- 54.9 53.6 53.2---
2024-07-17 04:20 pm S 3.9 5.8 3.3 177.2 SW30.12- 54.9 52.9 53.2---
2024-07-17 04:10 pm S 3.9 5.8----30.12- 54.9 53.1 53.2---
2024-07-17 04:00 pm S 5.8 5.8----30.12+0.00 54.9 52.5 53.1---
2024-07-17 03:50 pm S 5.8 5.8 3.3 177.4 SW30.13- 54.9 52.3 53.1---
2024-07-17 03:40 pmSSW 3.9 5.8----30.13- 55.0 52.7 53.1---
2024-07-17 03:30 pmSSW 3.9 3.9----30.13- 55.0 52.5 52.9---
2024-07-17 03:20 pmSSW 3.9 3.9 3.0 176.7 SW30.13- 55.2 52.9 52.9---
2024-07-17 03:10 pmSSW 3.9 5.8 3.0-6.7 SW30.13- 55.4 52.7 52.5---
2024-07-17 03:00 pm S 5.8 7.8----30.13+0.02 55.2 52.0 52.3---
2024-07-17 02:50 pm S 7.8 7.8 3.3 177.3 SW30.13- 54.9 52.5 52.2---
2024-07-17 02:40 pm S 7.8 7.8----30.13- 54.9 52.5 52.0---
2024-07-17 02:30 pmSSW 5.8 7.8----30.13- 54.9 52.5 51.8---
2024-07-17 02:20 pmSSW 7.8 7.8 3.0 177.0 SW30.12- 54.9 52.3 51.6---
2024-07-17 02:10 pm S 7.8 7.8 3.0-7.0 SW30.12- 54.7 52.7 51.8---
2024-07-17 02:00 pmSSW 5.8 7.8----30.12+0.03 54.7 52.3 52.2---
2024-07-17 01:50 pmSSW 5.8 5.8 3.0 176.5WSW30.12- 54.5 52.9 52.0---
2024-07-17 01:40 pmSSW 5.8 5.8----30.12- 54.5 52.5 52.2---
2024-07-17 01:30 pm S 5.8 7.8----30.12- 54.5 52.5 52.2---
2024-07-17 01:20 pm S 5.8 5.8 3.0 176.9WSW30.12- 54.3 52.3 52.0---
2024-07-17 01:10 pm S 5.8 5.8 3.0-6.9WSW30.12- 54.1 52.5 51.8---
2024-07-17 01:00 pm S 5.8 7.8----30.12+0.04 54.0 52.3 51.4---
2024-07-17 12:50 pm S 5.8 7.8 3.0 176.7 SW30.12- 54.0 52.5 51.4---
2024-07-17 12:40 pmSSE 5.8 7.8 3.0-6.7 SW30.12- 53.8 52.3 51.4---
2024-07-17 12:30 pmSSE 5.8 7.8----30.11- 53.8 52.5 51.4---
2024-07-17 12:20 pmSSE 7.8 7.8 2.6 176.5 S30.11- 54.0 52.3 51.4---
2024-07-17 12:10 pm SE 7.8 7.8----30.11- 54.1 52.3 51.4---
2024-07-17 12:00 pm SE 7.8 7.8----30.11+0.03 54.0 52.3 51.4---
2024-07-17 11:50 am SE 7.8 7.8 3.0-6.6WSW30.11-- 52.3----
2024-07-17 11:40 amSSE 7.8 7.8 3.0-6.6WSW30.11- 54.1 52.2 51.6---
2024-07-17 11:30 am SE 7.8 9.7----30.10- 54.1 52.0 51.6---
2024-07-17 11:20 am SE 7.8 7.8 3.0 176.5 SW30.10- 54.1 52.2 51.6---
2024-07-17 11:10 am SE 5.8 7.8 3.0-6.5 SW30.10- 54.0 52.2 51.6---
2024-07-17 11:00 am SE 7.8 7.8----30.10+0.02 54.1 52.2 51.6---
2024-07-17 10:50 am SE 7.8 9.7 3.0 176.6 S30.09- 54.5 52.3 51.8---
2024-07-17 10:40 am SE 7.8 9.7----30.09- 54.1 51.8 51.6---
2024-07-17 10:30 amESE 7.8 9.7----30.09- 54.3 51.6 51.6---
2024-07-17 10:20 amESE 7.8 11.7 3.3 176.3 SW30.09- 54.3 51.8 51.4---
2024-07-17 10:10 amESE 7.8 9.7 3.3-6.3 SW30.08- 54.0 52.0 51.3---
2024-07-17 10:00 amESE 7.8 9.7----30.09+0.03 53.6 52.0 51.3---
2024-07-17 09:50 amESE 5.8 7.8 3.0 176.1SSW30.08- 53.1 52.0 51.1---
2024-07-17 09:40 am SE 5.8 7.8----30.09- 53.1 52.0 51.3---
2024-07-17 09:30 am SE 5.8 7.8----30.09- 53.1 52.2 51.1---
2024-07-17 09:20 amSSE 5.8 5.8 3.0 175.6SSW30.09- 53.2 51.8 51.3---
2024-07-17 09:10 amSSE 5.8 5.8 3.0-5.6SSW30.08- 53.4 51.6 51.3---
2024-07-17 09:00 amSSE 5.8 7.8----30.08+0.04 53.4 51.8 51.1---
2024-07-17 08:50 amSSE 5.8 7.8 3.3 176.2WSW30.08- 53.6 51.8 51.1---
2024-07-17 08:40 amSSE 5.8 5.8 3.3-6.2WSW30.08- 53.6 51.6 50.9---
2024-07-17 08:30 am S 5.8 5.8----30.08- 53.6 51.8 51.1---
2024-07-17 08:20 am S 3.9 5.8 3.0 176.1 SW30.08- 53.6 51.6 51.1---
2024-07-17 08:10 am S 3.9 5.8 3.0-6.1 SW30.08- 54.0 51.3 51.1---
2024-07-17 08:00 am S 3.9 5.8----30.07+0.04 54.0 51.8 51.1---
2024-07-17 07:50 am S 3.9 5.8 3.3 176.4 SW30.07- 53.8 51.4 51.1---
2024-07-17 07:40 am S 3.9 5.8----30.07- 53.8 51.6 51.1---
2024-07-17 07:30 am S 3.9 7.8----30.06- 54.0 50.7 50.9---
2024-07-17 07:20 amSSE 5.8 7.8 3.0 175.9 SW30.06- 54.0 51.1 51.1---
2024-07-17 07:10 am S 3.9 5.8----30.06- 53.8 51.1 50.9---
2024-07-17 07:00 amSSE 3.9 5.8----30.06+0.02 54.3 51.1 51.1---
2024-07-17 06:50 am SE 3.9 5.8 3.0 176.4WSW30.05- 54.3 51.3 51.1---
2024-07-17 06:40 am SE 3.9 3.9----30.05- 53.8 51.6 51.3---
2024-07-17 06:30 amSSE 3.9 5.8----30.05- 53.4 51.8 51.1---
2024-07-17 06:20 amSSE 3.9 5.8 3.0 166.1 SW30.04- 53.4 52.0 51.1---
2024-07-17 06:10 amSSE 3.9 5.8 3.0-6.1 SW30.04- 53.1 52.0 50.9---
2024-07-17 06:00 amSSE 3.9 5.8----30.04+0.00 53.6 52.0 50.9---
2024-07-17 05:50 am SE 3.9 5.8 3.0 166.1 SW30.04- 53.4 51.8 50.7---
2024-07-17 05:40 am SE 3.9 5.8----30.04- 53.6 51.4 50.7---
2024-07-17 05:30 am S 3.9 5.8----30.04- 53.6 51.4 50.7---
2024-07-17 05:20 am S 5.8 5.8 3.3 176.4SSW30.04- 53.4 51.3 50.7---
2024-07-17 05:10 am S 5.8 5.8 3.3-6.4SSW30.04- 53.2 51.4 50.9---
2024-07-17 05:00 am S 5.8 5.8----30.04+0.00 53.1 51.3 50.9---
2024-07-17 04:50 am S 5.8 5.8 3.0 176.4SSW30.04- 53.1 50.9 50.7---
2024-07-17 04:40 am S 5.8 5.8----30.04- 53.2 51.1 50.9---
2024-07-17 04:30 am S 3.9 5.8----30.04- 53.4 50.9 51.1---
2024-07-17 04:20 amSSE 3.9 3.9 3.0 176.0SSW30.03- 53.4 50.9 51.1---
2024-07-17 04:10 am S 3.9 3.9----30.03- 53.4 50.9 50.9---
2024-07-17 04:00 am SE 3.9 5.8----30.03+0.00 53.6 51.1 51.1---
2024-07-17 03:50 amSSE 5.8 5.8 3.0 176.1 SW30.03- 53.4 50.9 51.1---
2024-07-17 03:40 amSSE 5.8 7.8----30.03- 53.8 50.9 51.1---
2024-07-17 03:30 amSSE 5.8 7.8----30.03- 54.0 50.9 50.7---
2024-07-17 03:20 am SE 5.8 7.8 3.0 176.2 SW30.03- 53.6 50.9 50.7---
2024-07-17 03:10 am SE 5.8 7.8 3.0-6.2 SW30.03- 53.6 50.9 50.5---
2024-07-17 03:00 am SE 5.8 7.8----30.04+0.00 53.6 50.9 50.5---
2024-07-17 02:50 amSSE 5.8 5.8 3.3 176.3 SW30.04- 54.0 50.9 50.4---
2024-07-17 02:40 am SE 3.9 5.8----30.04- 54.0 50.9 50.4---
2024-07-17 02:30 am SE 5.8 7.8----30.04- 54.5 50.7 50.2---
2024-07-17 02:20 amSSE 5.8 9.7 3.0 176.2WSW30.03- 55.0 50.7 50.2---
2024-07-17 02:10 amSSE 5.8 9.7 3.0-6.2WSW30.03- 54.3 50.7 50.2---
2024-07-17 02:00 amSSE 5.8 7.8----30.04+0.00 54.9 50.7 50.0---
2024-07-17 01:50 amSSE 5.8 7.8 3.3 176.3 SW30.04- 55.0 50.7 50.2---
2024-07-17 01:40 amSSE 5.8 7.8----30.04- 54.3 50.7 50.2---
2024-07-17 01:30 amSSE 7.8 9.7----30.04- 54.9 50.5 50.2---
2024-07-17 01:20 amSSE 7.8 9.7 3.0 176.0 SW30.04- 54.5 50.5 50.2---
2024-07-17 01:10 am S 7.8 9.7 3.0-6.0 SW30.04- 54.9 50.4 50.0---
2024-07-17 01:00 amSSE 7.8 9.7----30.04+0.00 54.5 50.4 50.0---
2024-07-17 12:50 amSSE 7.8 9.7 3.3 166.1 SW30.04- 54.5 51.1 50.0---
2024-07-17 12:40 am S 5.8 7.8----30.04- 54.3 51.1 50.2---
2024-07-17 12:30 am S 5.8 7.8----30.04- 54.3 50.9 50.2---
2024-07-17 12:20 amSSE 5.8 7.8 3.3 75.9NNW30.04- 54.3 50.7 50.0---
2024-07-17 12:10 amSSE 7.8 7.8 3.3-5.9NNW30.04- 54.3 50.9 50.0---
2024-07-17 12:00 amSSE 5.8 7.8----30.03+0.00 54.1 50.9 50.2---
2024-07-16 11:50 pmSSE 5.8 7.8 3.0 175.9SSW30.04- 54.3 51.1 50.0---
2024-07-16 11:40 pmSSE 5.8 7.8----30.04- 54.0 51.3 50.2---
2024-07-16 11:30 pmSSE 5.8 7.8----30.04- 53.6 51.1 50.4---
2024-07-16 11:20 pmSSE 5.8 7.8 3.0 175.8 SW30.04- 53.8 50.9 50.4---
2024-07-16 11:10 pmSSE 7.8 7.8 3.0-5.8 SW30.04- 53.8 51.1 50.4---
2024-07-16 11:00 pmSSE 7.8 7.8----30.03+0.00 53.6 50.9 50.5---
2024-07-16 10:50 pmSSE 7.8 7.8 3.3 76.1 NW30.03- 53.4 50.5 50.4---
2024-07-16 10:40 pmSSE 7.8 7.8----30.04- 53.4 50.5 50.4---
2024-07-16 10:30 pmSSE 7.8 7.8----30.04- 53.6 50.5 50.5---
2024-07-16 10:20 pmSSE 7.8 7.8 3.3 176.4WSW30.04- 53.6 50.7 50.4---
2024-07-16 10:10 pmSSE 7.8 7.8----30.04- 53.2 50.5 50.4---
2024-07-16 10:00 pmSSE 5.8 7.8----30.03+0.01 53.1 50.2 50.5---
2024-07-16 09:50 pmSSE 7.8 7.8 3.3 166.3WSW30.03- 52.9 49.8 50.4---
2024-07-16 09:40 pmSSE 7.8 7.8 3.3-6.3WSW30.03- 52.9 50.2 50.4---
2024-07-16 09:30 pmSSE 5.8 7.8----30.03- 53.1 50.7 50.5---
2024-07-16 09:20 pmSSE 5.8 7.8 3.0 76.2NNW30.03- 52.9 51.3 50.4---
2024-07-16 09:10 pmSSE 5.8 5.8 3.0-6.2NNW30.03- 53.1 51.3 50.5---
2024-07-16 09:00 pmSSE 5.8 5.8----30.03+0.00 52.9 51.3 50.4---
2024-07-16 08:50 pmSSE 5.8 5.8 3.0 76.3 NW30.03- 52.9 52.0 50.4---
2024-07-16 08:40 pm SE 3.9 5.8----30.03- 53.1 50.4 50.5---
2024-07-16 08:30 pmSSE 3.9 5.8----30.03- 53.2 51.8 50.5---
2024-07-16 08:20 pmSSE 3.9 5.8 3.0 176.3 SW30.03- 53.2 51.6 50.5---
2024-07-16 08:10 pmSSE 3.9 5.8 3.0-6.3 SW30.03- 53.2 51.3 50.5---
2024-07-16 08:00 pmSSE 5.8 5.8----30.03-0.01 53.4 51.6 50.7---
2024-07-16 07:50 pmSSE 5.8 5.8 3.0 76.3 NW30.03- 53.6 51.6 50.9---
2024-07-16 07:40 pm SE 5.8 5.8 3.0-6.3 NW30.03- 53.6 51.3 51.3---
2024-07-16 07:30 pm SE 5.8 5.8----30.03- 53.6 51.6 51.3---
2024-07-16 07:20 pm SE 5.8 5.8 3.0 76.4NNW30.02- 53.4 51.6 51.3---
2024-07-16 07:10 pm SE 5.8 5.8 3.0-6.4NNW30.02- 53.4 51.6 51.4---
2024-07-16 07:00 pm SE 5.8 7.8----30.02-0.01 53.4 52.3 51.3---
2024-07-16 06:50 pm SE 5.8 7.8 3.0 76.3NNW30.02- 53.6 51.8 51.4---
2024-07-16 06:40 pm SE 7.8 7.8 3.0-6.3NNW30.02- 53.6 52.2 51.4---
2024-07-16 06:30 pm SE 5.8 7.8----30.03- 53.2 52.3 51.3---
2024-07-16 06:20 pm SE 5.8 7.8 3.0 86.4 NW30.03- 53.2 52.3 51.4---
2024-07-16 06:10 pmSSE 5.8 7.8 3.0-6.4 NW30.03- 53.2 52.3 51.6---
2024-07-16 06:00 pmSSE 5.8 7.8----30.03+0.00 52.9 52.2 51.6---
2024-07-16 05:50 pm SE 5.8 5.8 3.0 76.2 NW30.03- 52.7 52.2 51.6---

Detailed Wave Summary
for 46027 as of
(6:10 pm PDT on 07/17/2024)
0110 GMT on 07/18/2024:

These wave data are displayed in rounded times.

     

Click on the graph icon in the table below to see a time series plot of the last five days of that observation.

5-day plot - Significant Wave Height Significant Wave Height (WVHT): 3.3 ft
5-day plot - Swell Height Swell Height (SwH): 3.0 ft
5-day plot - Swell Period Swell Period (SwP): 16.0 sec
5-day plot - Swell Direction Swell Direction (SwD): SW
5-day plot - Wind Wave Height Wind Wave Height (WWH): 1.0 ft
5-day plot - Wind Wave Period Wind Wave Period (WWP): 3.2 sec
5-day plot - Wind Wave Direction Wind Wave Direction (WWD):SSW
5-day plot - Wave Steepness Wave Steepness (STEEPNESS): SWELL
5-day plot - Average Wave Period Average Wave Period (APD): 6.9 sec
Previous observations
TIME
(PDT)
5-day plot - Wave Height
WVHT
ft
5-day plot - Swell Height
SwH
ft
5-day plot - Swell Period
SwP
sec
5-day plot - Swell Direction
SwD
 
5-day plot - Wind Wave Height
WWH
ft
5-day plot - Wind Wave Period
WWP
sec
5-day plot - Wind Wave Direction
WWD
 
5-day plot - Wave Steepness
STEEPNESS
 
5-day plot - Average Wave Period
APD
sec
2024-07-17 05:40 pm 3.0 3.0 17.4SSW 1.0 4.0 SSW SWELL 7.1
2024-07-17 05:10 pm 3.3 3.3 17.4 SW 1.0 3.8 SW SWELL 7.5
2024-07-17 04:40 pm 3.3 3.0 17.4SSW 1.0 4.0 SW SWELL 6.8
2024-07-17 04:10 pm 3.3 3.3 17.4 SW 1.0 3.8 SSW SWELL 7.2
2024-07-17 03:40 pm 3.3 3.3 17.4 SW 1.0 3.7 SSW SWELL 7.4
2024-07-17 03:10 pm 3.0 3.0 17.4 SW 1.0 4.0 SSW SWELL 6.7
2024-07-17 02:40 pm 3.3 3.0 17.4 SW 1.0 4.0 SSW SWELL 7.3
2024-07-17 02:10 pm 3.0 3.0 17.4 SW 1.0 3.8 SSW SWELL 7.0
2024-07-17 01:40 pm 3.0 2.6 17.4WSW 1.0 3.1 SSW SWELL 6.5
2024-07-17 01:10 pm 3.0 3.0 17.4WSW 1.0 3.6 SSW SWELL 6.9
2024-07-17 12:40 pm 3.0 3.0 17.4 SW 1.0 3.7 SSW SWELL 6.7
2024-07-17 12:10 pm 2.6 2.6 17.4 S 1.0 4.0 SSW SWELL 6.5
2024-07-17 11:40 am 3.0 2.6 17.4WSW 1.0 4.0 SSW SWELL 6.6
2024-07-17 11:10 am 3.0 3.0 17.4 SW 1.0 3.2 SSW SWELL 6.5
2024-07-17 10:40 am 3.0 3.0 17.4 S 1.0 4.0 SSW SWELL 6.6
2024-07-17 10:10 am 3.3 3.0 17.4 SW 1.0 4.0 SSW SWELL 6.3
2024-07-17 09:40 am 3.0 2.6 17.4SSW 1.0 3.4 SSW SWELL 6.1
2024-07-17 09:10 am 3.0 2.6 17.4SSW 1.0 3.7 SSW SWELL 5.6
2024-07-17 08:40 am 3.3 3.0 17.4WSW 1.0 3.6 SSW SWELL 6.2
2024-07-17 08:10 am 3.0 3.0 17.4 SW 1.0 3.8 SSW SWELL 6.1
2024-07-17 07:40 am 3.3 3.0 17.4 SW 1.0 3.8 SSW SWELL 6.4
2024-07-17 07:10 am 3.0 3.0 17.4 SW 1.0 3.8 SSW SWELL 5.9
2024-07-17 06:40 am 3.0 3.0 17.4WSW 1.0 3.8 SSW SWELL 6.4
2024-07-17 06:10 am 3.0 2.6 16.0 SW 1.0 3.3 SSW SWELL 6.1
2024-07-17 05:40 am 3.0 3.0 16.0 SW 1.0 3.6 SSW SWELL 6.1
2024-07-17 05:10 am 3.3 3.0 17.4SSW 1.0 3.3 S SWELL 6.4
2024-07-17 04:40 am 3.0 3.0 17.4SSW 1.0 4.0 SSW SWELL 6.4
2024-07-17 04:10 am 3.0 3.0 17.4SSW 1.0 3.6 SSW SWELL 6.0
2024-07-17 03:40 am 3.0 3.0 17.4 SW 1.0 3.6 SSW SWELL 6.1
2024-07-17 03:10 am 3.0 3.0 17.4 SW 1.0 3.3 SSW SWELL 6.2
2024-07-17 02:40 am 3.3 3.0 17.4 SW 1.0 3.7 SSW SWELL 6.3
2024-07-17 02:10 am 3.0 3.0 17.4WSW 1.0 3.6 SSW SWELL 6.2
2024-07-17 01:40 am 3.3 3.3 17.4 SW 1.0 4.0 SSW SWELL 6.3
2024-07-17 01:10 am 3.0 3.0 17.4 SW 1.0 3.7 SW SWELL 6.0
2024-07-17 12:40 am 3.3 3.0 16.0 SW 1.0 3.4 SW SWELL 6.1
2024-07-17 12:10 am 3.3 3.0 6.7NNW 1.0 4.0 SSW AVERAGE 5.9
2024-07-16 11:40 pm 3.0 3.0 17.4SSW 1.0 3.8 SW SWELL 5.9
2024-07-16 11:10 pm 3.0 3.0 17.4 SW 1.0 3.8 SW SWELL 5.8
2024-07-16 10:40 pm 3.3 3.3 7.1 NW 1.0 3.8 SW AVERAGE 6.1
2024-07-16 10:10 pm 3.3 3.0 17.4WSW 1.0 3.7 SW SWELL 6.4
2024-07-16 09:40 pm 3.3 3.0 16.0WSW 1.0 3.7 SSW SWELL 6.3
2024-07-16 09:10 pm 3.0 3.0 7.1NNW 1.0 3.8 SW AVERAGE 6.2
2024-07-16 08:40 pm 3.0 2.6 7.1 NW 1.0 3.7 SSW AVERAGE 6.3
2024-07-16 08:10 pm 3.0 3.0 17.4 SW 1.0 3.6 SSW SWELL 6.3
2024-07-16 07:40 pm 3.0 3.0 7.1 NW 1.0 3.4 SSW AVERAGE 6.3
2024-07-16 07:10 pm 3.0 3.0 7.1NNW 0.7 3.0 SSW AVERAGE 6.4
2024-07-16 06:40 pm 3.0 3.0 7.1NNW 0.7 2.9 S AVERAGE 6.3
2024-07-16 06:10 pm 3.0 3.0 7.7 NW 0.7 3.3 SW AVERAGE 6.4

Plot of wave energy versus frequency (and period)